FENGYUN 1C DEB *, 46993

Orbit data source: Space-Track

FENGYUN 1C DEB *, 46993 is space debris in SSO originally from a launch on Mon, 10 May 1999 UTC launched from the Taiyaun Space Center, China (TSC). Fengyun 1C debris stems from the Chinese weather satellite Fengyun-1C, which was intentionally destroyed by a Chinese anti-satellite missile in 2007. This event dramatically increased the amount of space debris, with thousands of trackable fragments posing hazards to satellites and human spaceflight. The Fengyun 1C debris cloud has become a focal point in discussions about space sustainability and the need for international regulations to prevent the creation of new debris.

Loading next visibility...
Identifier
46993, 1999-025EZT
Orbit
SSO
Country
Flag of CNCN / PRC
Related business
Manufacturer
Unknown
Mission
Spacecraft
Bus & Motor
Unknown
Mass
Unknown
Launch date (UTC)
1999-05-10 (27 years ago)
Launch vehicle
Unknown
Launch site
Taiyaun Space Center, China (TSC)
Object type
Payload
Rocket body
Debris
Shape & HBR
Unknown shape, 0.1 m
Radar Cross Section
Small (<0.1 m²)

Expand to show TLE details & history
Last TLE update: 6 days ago

TLE from 6 days ago
0 FENGYUN 1C DEB *
1 46993U 99025EZT 26167.54212027  .00000383  00000-0  37931-3 0  9991
2 46993  98.7357 273.7912 0263915 167.1822 209.2558 13.69346083628006
Epoch: 2026-06-16T13:00Z
TLE epoch observation values (Epoch: 2026-06-16T13:00:39.191Z)
Latitude
14.79797°
Longitude
171.50057°
Altitude
1,175.205 km
Speed
7.182 km/s
True Right ascension
18h 05m 54s
True Declination
14° 43' 05"
Sunlit
Object was in full shadow at epoch
Visualization orbit readout
Latitude
Unknown
Longitude
Unknown
Altitude
Unknown
Speed
Unknown
Apparent Right ascension
Unknown
Apparent Declination
Unknown
Sunlit
N/A
Visualization observer readout
Local Sidereal Time
21:34:50
Azimuth
Unknown
Elevation
Unknown
Doppler factor
Unknown
Orbital elements
Apogee altitude
1,193.842 km
Perigee altitude
804.447 km
Semi-major axis
7,377.282 km
Eccentricity
0.02639
Inclination
98.7357°
RAAN
273.7912°
Arg. of periapsis
167.1822°
True anomaly
207.81937°
Mean anomaly
209.2558°
Eccentric anomaly
208.5335°
Mean motion
3.4253 °/min
Orbital period
105.1 mins
BSTAR
0.00037931
Loading maneuver chart data...
Computing Atmospheric mass density...
Loading historical data...
Loading historical data...
Loading historical data...
Loading historical data...
Loading historical data...
Loading historical data...
Loading historical data...

Documentation

Showing up to 5 results
|